Weather History for Appleton, MN

Change the Weather History Date:

Tuesday, May 20, 2014

  Actual Average Record
Temperature  
Mean Temperature 66 °F -  
Max Temperature 82 °F 66 °F 82 °F (2014)
Min Temperature 51 °F 44 °F 30 °F (1997)
Cooling Degree Days 2    
Growing Degree Days 16 (Base 50)    
Moisture  
Dew Point 47 °F    
Average Humidity 56    
Maximum Humidity 94    
Minimum Humidity 18    
Precipitation  
Precipitation 0.00 in - - ()
Sea Level Pressure  
Sea Level Pressure 29.82 in    
Wind  
Wind Speed 6 mph (WNW)    
Max Wind Speed 17 mph    
Max Gust Speed 25 mph    
Visibility 8 miles    
Events      
Averages and records for this station are not official NWS values.
T = Trace of Precipitation, MM = Missing Value Source: NWS Daily Summary

Daily Weather History Graph

Daily Weather History Graph

Search for Another Location

Airport:

Trip Planner

Search our weather history database for the weather conditions in past years. The results will help you decide how hot, cold, wet, or windy it might be!

Date:

Astronomy

May. 20, 2014 Rise Set
Actual Time 5:48 AM CDT 8:52 PM CDT
Civil Twilight 5:13 AM CDT 9:28 PM CDT
Nautical Twilight 4:28 AM CDT 10:13 PM CDT
Astronomical Twilight 3:34 AM CDT 11:08 PM CDT
Moon 1:16 AM CDT (5/20) 12:04 PM CDT (5/20)
Length of Visible Light 16h 14m
Length of Day
15h 03m
Waning Gibbous, 60% of the Moon is Illuminated
May 20
Waning Gibbous
May 21
Last Quarter
May 28
New
Jun 5
First Quarter
Jun 12
Full

Hourly Weather History & Observations

Time (CDT) Temp. Dew Point Humidity Pressure Visibility Wind Dir Wind Speed Gust Speed Precip Events Conditions
12:15 AM 59.0 °F 55.4 °F 88% 29.72 in 3.0 mi SE 3.5 mph - N/A   Clear
12:34 AM 57.2 °F 55.4 °F 94% 29.72 in 3.0 mi SSE 3.5 mph - N/A   Clear
1:15 AM 57.2 °F 55.4 °F 94% 29.73 in 3.0 mi Calm Calm - N/A   Clear
1:34 AM 55.4 °F 53.6 °F 94% 29.74 in 2.5 mi SSW 3.5 mph - N/A   Clear
1:53 AM 57.2 °F 55.4 °F 94% 29.74 in 5.0 mi SW 3.5 mph - N/A   Clear
2:15 AM 55.4 °F 53.6 °F 94% 29.75 in 7.0 mi SW 5.8 mph - N/A   Clear
2:34 AM 55.4 °F 53.6 °F 94% 29.75 in 5.0 mi West 4.6 mph - N/A   Clear
2:53 AM 53.6 °F 51.8 °F 94% 29.76 in 5.0 mi West 3.5 mph - N/A   Clear
3:14 AM 53.6 °F 51.8 °F 94% 29.76 in 5.0 mi West 4.6 mph - N/A   Clear
3:34 AM 53.6 °F 51.8 °F 94% 29.77 in 7.0 mi NW 6.9 mph - N/A   Clear
3:54 AM 53.6 °F 51.8 °F 94% 29.76 in 7.0 mi WSW 5.8 mph - N/A   Clear
4:15 AM 53.6 °F 51.8 °F 94% 29.75 in 10.0 mi Calm Calm - N/A   Clear
4:33 AM 53.6 °F 50.0 °F 88% 29.76 in 7.0 mi NW 3.5 mph - N/A   Clear
4:54 AM 53.6 °F 50.0 °F 88% 29.75 in 7.0 mi Calm Calm - N/A   Clear
5:14 AM 51.8 °F 48.2 °F 88% 29.75 in 5.0 mi Calm Calm - N/A   Clear
5:34 AM 51.8 °F 50.0 °F 94% 29.75 in 3.0 mi Calm Calm - N/A   Clear
5:54 AM 51.8 °F 48.2 °F 88% 29.77 in 5.0 mi WSW 3.5 mph - N/A   Clear
6:13 AM 51.8 °F 48.2 °F 88% 29.78 in 4.0 mi WSW 5.8 mph - N/A   Clear
6:36 AM 53.6 °F 51.8 °F 94% 29.79 in 5.0 mi WNW 8.1 mph - N/A   Clear
6:55 AM 53.6 °F 51.8 °F 94% 29.79 in 5.0 mi NW 3.5 mph - N/A   Clear
7:13 AM 55.4 °F 53.6 °F 94% 29.81 in 5.0 mi Calm Calm - N/A   Clear
7:33 AM 57.2 °F 53.6 °F 88% 29.81 in 7.0 mi Calm Calm - N/A   Clear
7:53 AM 59.0 °F 53.6 °F 82% 29.82 in 10.0 mi Calm Calm - N/A   Clear
8:15 AM 62.6 °F 55.4 °F 77% 29.83 in 10.0 mi NNW 3.5 mph - N/A   Clear
8:33 AM 62.6 °F 55.4 °F 77% 29.83 in 10.0 mi NNW 3.5 mph - N/A   Clear
8:54 AM 64.4 °F 55.4 °F 73% 29.84 in 10.0 mi North 4.6 mph - N/A   Clear
9:14 AM 66.2 °F 53.6 °F 64% 29.84 in 10.0 mi NNW 4.6 mph - N/A   Clear
9:35 AM 69.8 °F 51.8 °F 53% 29.85 in 10.0 mi North 8.1 mph - N/A   Clear
9:54 AM 69.8 °F 51.8 °F 53% 29.85 in 10.0 mi North 4.6 mph - N/A   Clear
10:13 AM 71.6 °F 50.0 °F 46% 29.85 in 10.0 mi North 4.6 mph - N/A   Clear
10:34 AM 71.6 °F 50.0 °F 46% 29.85 in 10.0 mi NNW 4.6 mph - N/A   Clear
10:53 AM 73.4 °F 50.0 °F 44% 29.86 in 10.0 mi Calm Calm - N/A   Clear
11:14 AM 73.4 °F 48.2 °F 41% 29.86 in 10.0 mi NW 3.5 mph - N/A   Clear
11:35 AM 73.4 °F 46.4 °F 38% 29.87 in 10.0 mi Calm Calm - N/A   Clear
11:54 AM 75.2 °F 48.2 °F 38% 29.87 in 10.0 mi West 5.8 mph - N/A   Clear
12:14 PM 77.0 °F 48.2 °F 36% 29.86 in 10.0 mi WNW 5.8 mph - N/A   Clear
12:35 PM 77.0 °F 46.4 °F 34% 29.86 in 10.0 mi West 5.8 mph - N/A   Clear
12:54 PM 77.0 °F 46.4 °F 34% 29.86 in 10.0 mi West 9.2 mph - N/A   Clear
1:13 PM 75.2 °F 46.4 °F 36% 29.86 in 10.0 mi WNW 5.8 mph - N/A   Clear
1:34 PM 77.0 °F 46.4 °F 34% 29.85 in 10.0 mi Calm Calm - N/A   Clear
1:55 PM 77.0 °F 48.2 °F 36% 29.85 in 10.0 mi Calm Calm - N/A   Scattered Clouds
2:14 PM 78.8 °F 44.6 °F 30% 29.84 in 10.0 mi Calm Calm - N/A   Scattered Clouds
2:34 PM 80.6 °F 44.6 °F 28% 29.83 in 10.0 mi West 10.4 mph - N/A   Clear
2:54 PM 80.6 °F 42.8 °F 26% 29.83 in 10.0 mi WNW 15.0 mph 25.3 mph N/A   Scattered Clouds
3:13 PM 82.4 °F 39.2 °F 21% 29.82 in 10.0 mi West 16.1 mph 21.9 mph N/A   Clear
3:33 PM 80.6 °F 37.4 °F 21% 29.82 in 10.0 mi NW 9.2 mph 21.9 mph N/A   Clear
3:54 PM 82.4 °F 37.4 °F 20% 29.82 in 10.0 mi WNW 13.8 mph 18.4 mph N/A   Clear
4:14 PM 82.4 °F 37.4 °F 20% 29.82 in 10.0 mi WNW 16.1 mph 24.2 mph N/A   Clear
4:34 PM 82.4 °F 37.4 °F 20% 29.82 in 10.0 mi West 11.5 mph 20.7 mph N/A   Clear
4:54 PM 80.6 °F 39.2 °F 23% 29.82 in 10.0 mi West 13.8 mph 24.2 mph N/A   Clear
5:14 PM 80.6 °F 37.4 °F 21% 29.82 in 10.0 mi West 8.1 mph 20.7 mph N/A   Clear
5:34 PM 82.4 °F 37.4 °F 20% 29.82 in 10.0 mi WNW 11.5 mph - N/A   Clear
5:55 PM 82.4 °F 35.6 °F 19% 29.82 in 10.0 mi West 12.7 mph - N/A   Clear
6:13 PM 80.6 °F 35.6 °F 20% 29.82 in 10.0 mi WNW 16.1 mph 21.9 mph N/A   Clear
6:34 PM 80.6 °F 33.8 °F 18% 29.82 in 10.0 mi WNW 16.1 mph 20.7 mph N/A   Clear
6:53 PM 80.6 °F 35.6 °F 20% 29.82 in 10.0 mi WNW 17.3 mph - N/A   Clear
7:15 PM 78.8 °F 35.6 °F 21% 29.82 in 10.0 mi NW 13.8 mph - N/A   Clear
7:34 PM 78.8 °F 37.4 °F 23% 29.82 in 10.0 mi WNW 12.7 mph 17.3 mph N/A   Clear
7:54 PM 77.0 °F 37.4 °F 24% 29.83 in 10.0 mi WNW 11.5 mph - N/A   Clear
8:14 PM 75.2 °F 41.0 °F 29% 29.83 in 7.0 mi WNW 8.1 mph - N/A   Clear
8:34 PM 73.4 °F 41.0 °F 31% 29.84 in 10.0 mi NW 13.8 mph - N/A   Clear
8:55 PM 71.6 °F 46.4 °F 41% 29.85 in 10.0 mi NNW 12.7 mph 20.7 mph N/A   Clear
9:13 PM 69.8 °F 48.2 °F 46% 29.86 in 10.0 mi NNW 11.5 mph - N/A   Clear
9:35 PM 68.0 °F 48.2 °F 49% 29.87 in 10.0 mi NNW 10.4 mph - N/A   Clear
9:53 PM 66.2 °F 48.2 °F 52% 29.88 in 10.0 mi NNW 8.1 mph - N/A   Clear
10:14 PM 62.6 °F 48.2 °F 59% 29.89 in 10.0 mi NNW 6.9 mph - N/A   Clear
10:35 PM 64.4 °F 48.2 °F 56% 29.91 in 10.0 mi North 15.0 mph - N/A   Clear
10:54 PM 62.6 °F 48.2 °F 59% 29.92 in 10.0 mi North 15.0 mph - N/A   Clear
11:14 PM 60.8 °F 46.4 °F 59% 29.92 in 10.0 mi NNW 16.1 mph 21.9 mph N/A   Clear
11:34 PM 60.8 °F 46.4 °F 59% 29.93 in 10.0 mi North 15.0 mph - N/A   Clear
11:54 PM 59.0 °F 46.4 °F 63% 29.94 in 10.0 mi NNW 15.0 mph 18.4 mph N/A   Clear